(459479) = 2013 CP47

Discovered at Kitt Peak on 2013-02-05 by Spacewatch.

Orbit

Orbit type: Main Belt

Note: WebGL enabled browser required.

epoch2023-02-25.0
epoch JD2460000.5
perihelion date2020-06-18.51248
perihelion JD2459019.01248
argument of perihelion (°)309.57968
ascending node (°)300.70104
inclination (°)5.22051
eccentricity0.1242200
perihelion distance (AU)1.9347333
Tisserand w.r.t. Jupiter3.6
ΔV w.r.t. Earth (km/sec)8.7
semimajor axis (AU)2.2091544
mean anomaly (°)294.61138
mean daily motion (°/day)0.30016820
aphelion distance (AU)2.484
period (years)3.28
P-vector [x]-0.33466303
P-vector [y]-0.83428494
P-vector [z]-0.43814300
Q-vector [x]0.93908452
Q-vector [y]-0.33386817
Q-vector [z]-0.08156169
absolute magnitude17.96
phase slope0.15
uncertainty0
referenceMPO 745323
observations used165
oppositions11
arc length (days)6816
first opposition used2004
last opposition used2023
residual rms (arc-secs)0.64
perturbers coarse indicatorM-v
perturbers precise indicator003Ek
first observation date used2004-08-22.0
last observation date used2023-04-21.0
computer nameMPCLINUX
JD of orbit computation2457435.129820
perihelion JD uncertainty (days)1.2920E-04
argument of perihelion uncertainty (°)4.8415E-05
ascending node uncertainty (°)3.3704E-05
inclination uncertainty (°)5.1695E-06
eccentricity uncertainty 2.4052E-08
perihelion distance uncertainty (AU)5.4524E-08
Minimum Orbit Intersection Distances (in AU)
for orbit epoch: 2460000.5, reference: E2023-HD3
Mercury1.46861
Venus1.21195
Earth0.9251
Mars0.42265
Jupiter2.55739
Saturn6.59848
Uranus16.2335
Neptune27.442

Observations

172 total observations over interval: 2004 08 22.26699 – 2023 04 21.383829
These data are available for download (format description).

Date (UT) J2000 RA J2000 Dec Magn Location Ref
2004 08 22.26699 21 57 03.69 -07 29 18.1 20.4 V 691 – Steward Observatory, Kitt Peak-Spacewatch MPS 526568
2004 08 22.29429 21 57 01.90 -07 29 22.8 20.5 V 691 – Steward Observatory, Kitt Peak-Spacewatch MPS 526568
2004 08 22.32170 21 57 00.08 -07 29 27.5 20.2 V 691 – Steward Observatory, Kitt Peak-Spacewatch MPS 526568
2005 12 10.40278 06 51 55.88 +26 56 37.2 21.4 V 691 – Steward Observatory, Kitt Peak-Spacewatch MPS 526568
2005 12 10.42354 06 51 54.57 +26 56 37.2 21.4 V 691 – Steward Observatory, Kitt Peak-Spacewatch MPS 526568
2005 12 10.44089 06 51 53.51 +26 56 36.6 21.7 V 691 – Steward Observatory, Kitt Peak-Spacewatch MPS 526568
2011 10 21.30836 01 49 10.34 +20 44 04.6 20.0 V G96 – Mt. Lemmon Survey MPS 526568
2011 10 21.31582 01 49 09.76 +20 44 02.5 21.0 V G96 – Mt. Lemmon Survey MPS 526568
2011 10 21.32339 01 49 09.26 +20 43 59.8 20.7 V G96 – Mt. Lemmon Survey MPS 526568
2011 10 21.33097 01 49 08.79 +20 43 57.4 20.7 V G96 – Mt. Lemmon Survey MPS 526568
2013 02 05.29688 10 30 51.32 +04 47 45.2 20.5 V 691 – Steward Observatory, Kitt Peak-Spacewatch MPS 454028
2013 02 05.31455 10 30 50.35 +04 47 46.4 20.6 V 691 – Steward Observatory, Kitt Peak-Spacewatch MPS 454028
2013 02 05.33221 10 30 49.36 +04 47 48.0 20.5 V 691 – Steward Observatory, Kitt Peak-Spacewatch MPS 454028
2013 02 08.49262 10 27 54.621 +04 53 23.11 20.4 w F51 – Pan-STARRS 1, Haleakala MPS 454028
2013 02 08.50850 10 27 53.664 +04 53 25.01 20.6 w F51 – Pan-STARRS 1, Haleakala MPS 454028
2013 02 08.52441 10 27 52.707 +04 53 26.92 20.5 w F51 – Pan-STARRS 1, Haleakala MPS 454028
2013 02 08.54230 10 27 51.637 +04 53 28.99 20.5 w F51 – Pan-STARRS 1, Haleakala MPS 454028
2013 02 10.49220 10 25 57.613 +04 57 39.58 21.2 g F51 – Pan-STARRS 1, Haleakala MPS 454028
2013 02 10.50513 10 25 56.797 +04 57 41.48 20.7 r F51 – Pan-STARRS 1, Haleakala MPS 454028
2013 02 10.51778 10 25 56.010 +04 57 43.13 20.6 r F51 – Pan-STARRS 1, Haleakala MPS 454028
2013 02 14.24226 10 22 07.09 +05 07 05.4 20.3 V 691 – Steward Observatory, Kitt Peak-Spacewatch MPS 456484
2013 02 14.25989 10 22 06.03 +05 07 08.1 20.5 V 691 – Steward Observatory, Kitt Peak-Spacewatch MPS 456484
2013 02 14.27753 10 22 04.90 +05 07 10.9 20.8 V 691 – Steward Observatory, Kitt Peak-Spacewatch MPS 456484
2013 03 04.30449 10 02 27.886 +06 09 04.25 20.8 w F51 – Pan-STARRS 1, Haleakala MPS 457822
2013 03 04.31871 10 02 26.967 +06 09 07.46 20.6 w F51 – Pan-STARRS 1, Haleakala MPS 457822
2013 03 04.33296 10 02 26.039 +06 09 10.81 20.6 w F51 – Pan-STARRS 1, Haleakala MPS 457822
2013 03 04.34719 10 02 25.117 +06 09 13.86 20.5 w F51 – Pan-STARRS 1, Haleakala MPS 457822
2013 03 15.26566 09 52 10.99 +06 48 13.3 20.7 V G96 – Mt. Lemmon Survey MPS 459393
2013 03 15.27095 09 52 10.70 +06 48 14.5 20.7 V G96 – Mt. Lemmon Survey MPS 459393
2013 03 15.27622 09 52 10.45 +06 48 15.9 20.9 V G96 – Mt. Lemmon Survey MPS 459393
2014 07 29.54151 23 56 41.957 +04 58 51.33 21.1 w F51 – Pan-STARRS 1, Haleakala MPS 526568
2014 07 29.56621 23 56 41.842 +04 58 57.33 21.3 w F51 – Pan-STARRS 1, Haleakala MPS 526569
2014 07 29.57858 23 56 41.788 +04 59 00.47 21.3 w F51 – Pan-STARRS 1, Haleakala MPS 526569
2014 07 30.56372 23 56 38.659 +05 02 50.60 21.4 w F51 – Pan-STARRS 1, Haleakala MPS 526569
2014 07 30.57616 23 56 38.574 +05 02 53.63 21.4 w F51 – Pan-STARRS 1, Haleakala MPS 526569
2014 07 30.58862 23 56 38.499 +05 02 56.52 21.2 w F51 – Pan-STARRS 1, Haleakala MPS 526569
2014 07 30.60115 23 56 38.407 +05 02 59.40 21.2 w F51 – Pan-STARRS 1, Haleakala MPS 526569
2014 08 06.53316 23 55 24.403 +05 24 38.55 21.0 w F51 – Pan-STARRS 1, Haleakala MPS 797871
2014 08 06.54480 23 55 24.164 +05 24 40.26 21.1 w F51 – Pan-STARRS 1, Haleakala MPS 797871
2014 08 06.55659 23 55 23.952 +05 24 41.90 21.0 w F51 – Pan-STARRS 1, Haleakala MPS 797871
2014 08 06.56822 23 55 23.709 +05 24 43.70 21.2 w F51 – Pan-STARRS 1, Haleakala MPS 797871
2014 08 18.45587 23 49 49.884 +05 38 35.56 20.9 i F51 – Pan-STARRS 1, Haleakala MPS 527118
2014 08 18.47921 23 49 48.916 +05 38 35.68 20.9 i F51 – Pan-STARRS 1, Haleakala MPS 527118
2014 08 18.49086 23 49 48.418 +05 38 35.49 21.1 i F51 – Pan-STARRS 1, Haleakala MPS 527118
2014 09 14.27990 23 25 28.49 +04 24 12.7 20.2 V G96 – Mt. Lemmon Survey MPS 531561
2014 09 14.28697 23 25 27.98 +04 24 10.5 20.4 V G96 – Mt. Lemmon Survey MPS 531561
2014 09 14.29405 23 25 27.57 +04 24 08.4 20.4 V G96 – Mt. Lemmon Survey MPS 531561
2014 09 14.30721 23 25 26.67 +04 24 04.5 20.4 V G96 – Mt. Lemmon Survey MPS 531561
2014 09 24.28213 23 15 29.62 +03 31 56.0 21.3 V G96 – Mt. Lemmon Survey MPS 533345
2014 09 24.28823 23 15 29.24 +03 31 53.9 21.4 V G96 – Mt. Lemmon Survey MPS 533345
2014 09 24.29431 23 15 28.87 +03 31 51.8 20.8 V G96 – Mt. Lemmon Survey MPS 533345
2014 09 24.30040 23 15 28.49 +03 31 49.6 20.8 V G96 – Mt. Lemmon Survey MPS 533345
2014 10 01.45149 23 09 14.165 +02 53 16.68 20.6 w F51 – Pan-STARRS 1, Haleakala MPS 536745
2014 10 01.46302 23 09 13.591 +02 53 12.92 20.6 w F51 – Pan-STARRS 1, Haleakala MPS 536745
2014 10 01.47458 23 09 13.011 +02 53 09.21 20.6 w F51 – Pan-STARRS 1, Haleakala MPS 536745
2016 01 03.40840 08 01 15.356 +21 56 50.89 21.3 w F51 – Pan-STARRS 1, Haleakala MPS 665574
2016 01 03.42005 08 01 14.563 +21 56 51.69 21.1 w F51 – Pan-STARRS 1, Haleakala MPS 665574
2016 01 03.43167 08 01 13.781 +21 56 52.42 21.1 w F51 – Pan-STARRS 1, Haleakala MPS 665574
2016 01 03.44331 08 01 13.003 +21 56 53.36 21.1 w F51 – Pan-STARRS 1, Haleakala MPS 665574
2016 01 05.52569 07 58 54.580 +21 58 59.68 21.2 w F51 – Pan-STARRS 1, Haleakala MPS 665574
2016 01 05.53922 07 58 53.610 +21 59 00.54 21.3 w F51 – Pan-STARRS 1, Haleakala MPS 665574
2016 01 05.55277 07 58 52.674 +21 59 01.15 21.1 w F51 – Pan-STARRS 1, Haleakala MPS 665574
2016 01 05.56640 07 58 51.726 +21 59 01.72 21.1 w F51 – Pan-STARRS 1, Haleakala MPS 665574
2016 01 07.75331 07 56 21.73 +22 01 12.5 20.7 R D29 – Purple Mountain Observatory, XuYi Station MPS 665574
2016 01 07.77375 07 56 20.12 +22 01 11.3 20.6 R D29 – Purple Mountain Observatory, XuYi Station MPS 665574
2016 01 16.47889 07 45 50.507 +22 08 40.27 20.9 w F51 – Pan-STARRS 1, Haleakala MPS 671892
2016 01 16.48971 07 45 49.672 +22 08 40.53 20.9 w F51 – Pan-STARRS 1, Haleakala MPS 671892
2016 01 16.50055 07 45 48.845 +22 08 40.99 21.0 w F51 – Pan-STARRS 1, Haleakala MPS 671892
2016 01 28.13232 07 31 55.20 +22 12 51.9 20.9 V G96 – Mt. Lemmon Survey MPS 674090
2016 01 28.13861 07 31 54.74 +22 12 52.6 20.7 V G96 – Mt. Lemmon Survey MPS 674090
2016 01 28.14489 07 31 54.33 +22 12 52.6 20.4 V G96 – Mt. Lemmon Survey MPS 674090
2016 01 29.13638 07 30 47.80 +22 12 53.0 20.2 V G96 – Mt. Lemmon Survey MPS 674090
2016 01 29.14276 07 30 47.39 +22 12 51.5 20.3 V G96 – Mt. Lemmon Survey MPS 674090
2016 01 29.14915 07 30 46.92 +22 12 51.2 21.1 V G96 – Mt. Lemmon Survey MPS 674090
2016 01 29.15554 07 30 46.50 +22 12 51.2 21.6 V G96 – Mt. Lemmon Survey MPS 674090
2016 02 01.28815 07 27 23.980 +22 12 23.66 20.9 w F51 – Pan-STARRS 1, Haleakala MPS 675369
2016 02 01.30141 07 27 23.128 +22 12 23.63 20.9 w F51 – Pan-STARRS 1, Haleakala MPS 675370
2016 02 01.31458 07 27 22.258 +22 12 23.50 20.9 w F51 – Pan-STARRS 1, Haleakala MPS 675370
2016 02 01.32781 07 27 21.398 +22 12 23.24 20.9 w F51 – Pan-STARRS 1, Haleakala MPS 675370
2016 02 16.22308 07 14 55.61 +22 01 56.1 21.3 V G96 – Mt. Lemmon Survey MPS 682624
2016 02 16.22967 07 14 55.33 +22 01 54.7 21.1 V G96 – Mt. Lemmon Survey MPS 682624
2016 02 16.23627 07 14 55.10 +22 01 54.5 22.5 V G96 – Mt. Lemmon Survey MPS 682624
2016 02 16.24549 07 14 54.76 +22 01 54.4 21.0 V G96 – Mt. Lemmon Survey MPS 682624
2017 06 24.51063 20 49 49.998 -19 17 19.25 21.1 w F51 – Pan-STARRS 1, Haleakala MPS 803453
2017 06 24.52165 20 49 49.681 -19 17 18.27 21.2 w F51 – Pan-STARRS 1, Haleakala MPS 803453
2017 06 24.53267 20 49 49.361 -19 17 17.25 21.1 w F51 – Pan-STARRS 1, Haleakala MPS 803453
2017 06 24.54370 20 49 49.029 -19 17 16.28 21.0 w F51 – Pan-STARRS 1, Haleakala MPS 803453
2017 08 16.36387 20 01 46.474 -18 45 41.43 20.1 w F51 – Pan-STARRS 1, Haleakala MPS 812016
2017 08 16.37706 20 01 45.869 -18 45 40.58 20.1 w F51 – Pan-STARRS 1, Haleakala MPS 812016
2017 08 16.39021 20 01 45.268 -18 45 39.81 20.1 w F51 – Pan-STARRS 1, Haleakala MPS 812016
